User: anonymous   Login
Location: Clinton NY
(43.0598°N, 75.3602°W)
Time: 12:34:53
(UTC-04:00)
Language:

Iridium 11 - Orbit

View from above orbital plane
View from above orbital plane
View from above satellite
View from above satellite

Ground track
Ground track

The orbit data is extracted from the following two-line orbital elements,

1 25578U 98074B   18112.56724863  .00000016  00000-0 -12010-5 0  9996
2 25578  86.3932 126.3313 0002323 107.0984   5.5149 14.34215992 21746
Epoch (UTC): 22 April 2018 13:36:50
Eccentricity: 0.0002323
inclination: 86.3932°
perigee height: 776 km
apogee height: 779 km
right ascension of ascending node: 126.3313°
argument of perigee: 107.0984°
revolutions per day: 14.34215992
mean anomaly at epoch: 5.5149°
orbit number at epoch: 2174

The dashed part of the orbit path shows where the satellite is in the earth's shadow,  

DLR